This is the latest recevied weather packets stored in our database for station/object VK4RM-13. If no packets are shown the sender has not sent any weather packets the latest 10 day(s).
| Time | Temp. | Humidity | Pressure | Rain* | Wind** | Luminosity | Snow |
|---|---|---|---|---|---|---|---|
| 1777891601 | 18.33° C | 92% | 996.7 hPa | 0 mm | - | - | - |
| 1777891001 | 18.33° C | 92% | 996.8 hPa | 0 mm | - | - | - |
| 1777890401 | 18.33° C | 92% | 996.6 hPa | 0 mm | - | - | - |
| 1777889801 | 18.33° C | 92% | 996.6 hPa | 0 mm | - | - | - |
| 1777889201 | 18.33° C | 92% | 996.5 hPa | 0 mm | - | - | - |
| 1777888601 | 18.33° C | 91% | 996.4 hPa | 0 mm | - | - | - |
| 1777888001 | 18.89° C | 91% | 996.4 hPa | 0 mm | - | - | - |
| 1777887401 | 18.89° C | 90% | 996.1 hPa | 0 mm | - | - | - |
| 1777886801 | 18.89° C | 90% | 996.1 hPa | 0 mm | - | - | - |
| 1777886201 | 19.44° C | 90% | 996 hPa | 0 mm | - | - | - |
| 1777885601 | 19.44° C | 90% | 995.8 hPa | 0 mm | - | - | - |
| 1777885002 | 19.44° C | 90% | 995.7 hPa | 0 mm | - | - | - |
| 1777884401 | 19.44° C | 89% | 995.5 hPa | 0 mm | - | - | - |
| 1777883801 | 20° C | 89% | 995.5 hPa | 0 mm | - | - | - |
| 1777883201 | 20° C | 88% | 995.4 hPa | 0 mm | - | - | - |
| 1777882601 | 20° C | 88% | 995.2 hPa | 0 mm | - | - | - |
| 1777882001 | 20.56° C | 88% | 995.2 hPa | 0 mm | - | - | - |
| 1777881401 | 20.56° C | 88% | 995 hPa | 0 mm | - | - | - |
| 1777880801 | 20.56° C | 87% | 995 hPa | 0 mm | - | - | - |
| 1777880201 | 21.11° C | 87% | 994.9 hPa | 0 mm | - | - | - |
| 1777879601 | 21.11° C | 86% | 994.7 hPa | 0 mm | - | - | - |
| 1777879001 | 21.67° C | 84% | 994.7 hPa | 0 mm | - | - | - |
| 1777878401 | 22.22° C | 83% | 994.6 hPa | 0 mm | - | - | - |
| 1777877801 | 23.89° C | 76% | 994.4 hPa | 0 mm | - | - | - |
| 1777877201 | 25° C | 72% | 994.3 hPa | 0 mm | - | - | - |
* Rain latest hour (hover to see other rain measurements)
** Current wind speed in m/s (hover to see current wind gust speed)